Volver al catálogo

STARLINK-30895

ActivoComunicacionesVLEO
NORAD 58418·PAYLOAD·🇺🇸 United States

Lanzado Nov 22, 2023 desde Cape Canaveral Space Force Station

Loading…

Próximos Pases (próximas 24 horas)

TLE

ActualizadoSource: CelesTrak SupGP

Época: Sep 14, 2026, 14:02 UTC

1 58418C 23180S   26257.58520833  .00024007  00000+0  80447-3 0  2571
2 58418  43.0000  65.3557 0004085 289.3033 296.0638 15.30087951    15

Sigue STARLINK-30895 en tiempo real con AllMySat

Download on the App Store